STARLINK-32448, 62206

Orbit data source: Space-Track

STARLINK-32448, 62206 is a payload satellite owned by SpaceX/Seattle (US) in LEO that was launched on Wed, 04 Dec 2024 UTC via an FALCON 9 launch vehicle from the Air Force Eastern Test Range (AFETR). Payload-class satellites include a variety of spacecraft equipped with specific instruments for various scientific and technological missions. These include communications satellites like Starlink; space stations such as the ISS; scientific satellites like the Hubble; Earth observation satellites from companies like Planet Labs, Umbra, and HawkEye 360; GPS; miniature CubeSats for education and research; and military/defense satellites.

Loading next visibility...
Identifier
62206, 2024-229Q
Orbit
LEO
Last TLE update
21 hours ago
Origin
Manufacturer
SpaceX/Seattle
Mission
Operational Commercial Communications
Bus & Motor
STARLINK V2M, Unknown motor
Mass
730 kg wet, ~700 kg dry
Launch date (UTC)
2024-12-04 (7 months ago)
Launch vehicle
FALCON 9
Launch site
Air Force Eastern Test Range (AFETR)
Object type
Payload
Rocket body
Debris
Shape & HBR
Box + 2 Pan, 29 m
Radar Cross Section
33.884 m², Large (>1 m²)

Expand to show TLE details & history

TLE from 21 hours ago
0 STARLINK-32448
1 62206U 24229Q   25189.46128089  .00008434  00000-0  31561-3 0  9996
2 62206  42.9989 209.6561 0000733 294.5518  65.5257 15.27582975 33215
Epoch: 2025-07-08T11:04Z
TLE epoch observation values (Epoch: 2025-07-08T11:04:14.668Z)
Latitude
-0.00005°
Longitude
116.939°
Altitude
482.607 km
Speed
7.626 km/s
True Right ascension
13h 58m 37s
True Declination
0° 00' 00"
Sunlit
Object was in daylight at epoch
Visualization orbit readout
Latitude
41.24744°
Longitude
-178.6798°
Altitude
486.08 km
Speed
7.628 km/s
Apparent Right ascension
13h 33m 55s
Apparent Declination
11° 02' 08"
Sunlit
Object is in full shadow
Visualization observer readout
Local Sidereal Time
19:57:17
Azimuth
282.19° WNW
Elevation
2.648°
Doppler factor
1
Orbital elements
Apogee altitude
485.489 km
Perigee altitude
484.482 km
Semi-major axis
6,863.123 km
Eccentricity
0.00007
Inclination
42.9989°
RAAN
209.6561°
Arg. of periapsis
294.5518°
True anomaly
Unknown
Mean anomaly
65.5257°
Eccentric anomaly
Unknown
Mean motion
3.81734 °/min
Orbital period
94.31 mins
BSTAR
0.00031561
Loading maneuver chart data...
Loading SW <> Apogee altitude chart data...
Loading historical data...
Loading historical data...
Loading historical data...
Loading historical data...
Loading historical data...
Loading historical data...
Loading historical data...

STARLINK-32448 Visibility forecast

Observer location: undefined°, undefined°

Span
Click to sort rows by Start time (UTC) header in descending order
Start Az.
Max El. time (UTC)
Max El. Az.
Max El.
End time (UTC)
End Az.
6 mins2025-07-09 07:49:44.303Z287.778° WNW2025-07-09 07:52:44.303Z348.739° N38.156°2025-07-09 07:55:44.303Z78.326° E
6 mins2025-07-09 09:29:44.303Z283.489° WNW2025-07-09 09:31:44.303Z244.974° WSW42.882°2025-07-09 09:35:44.303Z117.119° SE
4 mins2025-07-10 04:05:44.303Z192.895° SSW2025-07-10 04:06:44.303Z166.087° S28.157°2025-07-10 04:09:44.303Z90.904° ESE
5 mins2025-07-10 05:43:44.303Z264.962° W2025-07-10 05:45:44.303Z311.223° NW42.701°2025-07-10 05:48:44.303Z68.625° E
6 mins2025-07-10 07:22:44.303Z291.997° WNW2025-07-10 07:24:44.303Z334.967° NNW36.933°2025-07-10 07:28:44.303Z81.564° E
|